Location: Rodson Ranch
(38.7188°N, 119.3202°W)
Time: 16:14:29
(UTC+00:00)

Cosmos 1980 Rocket - Pass Details

Date: 29 October 2020
Orbit: 831 x 848 km, 71.0° (Epoch: 22 November)

Event Time Altitude Azimuth Distance (km) Brightness Sun altitude
Exits shadow 12:51:32 - 336° (NNW) 2,948 4.8 -18.1°
Reaches altitude 10° 12:52:51 10° 335° (NNW) 2,444 4.3 -17.8°
Maximum altitude 12:58:27 80° 249° (WSW) 848 2.1 -16.7°
Drops below altitude 10° 13:04:02 10° 163° (SSE) 2,435 4.9 -15.7°
Sets 13:06:28 0° 163° (SSE) 3,367 5.6 -15.2°
